TimeCST,TemperatureF,Dew PointF,Humidity,Sea Level PressureIn,VisibilityMPH,Wind Direction,Wind SpeedMPH,Gust SpeedMPH,PrecipitationIn,Events,Conditions,WindDirDegrees,DateUTC
12:54 AM,33.1,26.1,75,30.38,10.0,SSE,3.5,-,N/A,,Clear,150,2012-11-15 06:54:00
1:54 AM,32.0,25.0,75,30.38,10.0,Calm,Calm,-,N/A,,Clear,0,2012-11-15 07:54:00
2:54 AM,32.0,25.0,75,30.38,10.0,Calm,Calm,-,N/A,,Clear,0,2012-11-15 08:54:00
3:54 AM,30.0,25.0,82,30.37,10.0,Calm,Calm,-,N/A,,Clear,0,2012-11-15 09:54:00
4:54 AM,30.0,25.0,82,30.38,10.0,Calm,Calm,-,N/A,,Clear,0,2012-11-15 10:54:00
5:54 AM,30.2,26.6,86,30.35,9.0,Calm,Calm,-,N/A,,Clear,0,2012-11-15 11:54:00
6:54 AM,30.0,25.0,82,30.39,8.0,SSW,4.6,-,N/A,,Clear,200,2012-11-15 12:54:00
7:54 AM,32.0,28.0,85,30.41,7.0,Calm,Calm,-,N/A,,Clear,0,2012-11-15 13:54:00
8:54 AM,35.1,28.9,78,30.40,7.0,South,4.6,-,N/A,,Clear,180,2012-11-15 14:54:00
9:54 AM,39.0,28.9,67,30.41,9.0,SSW,5.8,-,N/A,,Clear,210,2012-11-15 15:54:00
10:54 AM,43.0,28.0,56,30.40,10.0,South,5.8,-,N/A,,Clear,190,2012-11-15 16:54:00
11:54 AM,46.0,30.0,54,30.38,10.0,South,4.6,-,N/A,,Clear,170,2012-11-15 17:54:00
12:54 PM,46.9,28.0,48,30.36,10.0,SSW,4.6,-,N/A,,Clear,210,2012-11-15 18:54:00
1:54 PM,48.0,27.0,44,30.35,10.0,Variable,4.6,-,N/A,,Clear,0,2012-11-15 19:54:00
2:54 PM,48.0,26.1,42,30.34,10.0,South,6.9,-,N/A,,Clear,170,2012-11-15 20:54:00
3:54 PM,46.9,26.1,44,30.35,10.0,South,4.6,-,N/A,,Clear,180,2012-11-15 21:54:00
4:54 PM,44.1,28.0,53,30.36,10.0,South,5.8,-,N/A,,Clear,180,2012-11-15 22:54:00
5:54 PM,42.1,26.1,53,30.37,9.0,South,3.5,-,N/A,,Clear,170,2012-11-15 23:54:00
6:54 PM,41.0,26.1,55,30.38,10.0,SSE,3.5,-,N/A,,Clear,160,2012-11-16 00:54:00
7:54 PM,41.0,26.1,55,30.38,10.0,South,3.5,-,N/A,,Clear,180,2012-11-16 01:54:00
8:54 PM,39.0,26.1,60,30.38,10.0,South,3.5,-,N/A,,Clear,190,2012-11-16 02:54:00
9:54 PM,37.9,26.1,62,30.39,10.0,South,3.5,-,N/A,,Clear,190,2012-11-16 03:54:00
10:54 PM,37.0,26.1,65,30.39,10.0,Calm,Calm,-,N/A,,Clear,0,2012-11-16 04:54:00
11:54 PM,34.0,26.1,73,30.40,10.0,Calm,Calm,-,N/A,,Clear,0,2012-11-16 05:54:00